RH
74 79 82 77 69 72 74 74 86 87 69 59 60 57 56 53 43 41 44 42 50 49 48 53 45 43 44 41 44 41 46 49
73 82 86 80 76 74 73 68 64 60 54 58 58 59 54 42 38 45 46 45 45 50 44 45 46 44 50 48 40 42 38 51
69 76 77 75 74 69 66 58 49 44 49 53 58 58 48 40 41 46 45 48 43 42 48 45 49 45 55 54 48 40 45 58
66 73 75 73 66 63 58 50 47 47 53 48 46 47 48 41 40 38 41 43 38 41 49 49 53 52 52 57 54 51 46 52
49 53 56 56 48 46 43 44 42 44 48 46 52 43 42 50 43 41 40 48 47 42 47 54 57 56 60 58 51 53 51 47
39 38 37 36 43 48 49 48 46 47 49 49 44 48 48 45 45 52 53 52 52 50 52 58 61 57 61 59 56 49 41 39
41 42 42 43 46 53 53 46 45 46 46 49 52 50 47 46 50 51 50 50 48 53 53 60 62 61 58 54 54 49 42 40
49 43 43 48 52 53 47 42 45 46 48 47 49 49 51 49 48 47 51 46 44 51 61 64 60 58 58 53 51 50 43 36
50 49 48 46 50 47 46 43 41 41 42 39 36 33 29 28 36 38 40 44 48 60 63 62 58 56 55 59 50 46 50 47
53 52 50 47 46 51 47 33 27 29 34 34 38 39 40 41 45 46 45 57 57 68 62 60 61 58 56 53 50 51 51 56
55 51 56 55 51 44 38 27 26 30 33 38 38 42 43 46 47 48 52 58 62 66 60 59 60 57 52 53 50 50 55 56
52 52 55 58 43 33 32 31 29 32 34 41 45 44 47 48 48 51 54 60 61 60 59 58 57 55 53 54 54 52 56 57
48 45 42 36 32 30 33 31 30 32 36 40 43 47 49 50 52 54 58 59 58 59 59 58 57 56 52 50 52 48 52 52
45 34 30 30 32 34 31 32 30 30 31 33 40 47 52 52 55 59 61 62 60 64 63 65 54 53 45 48 53 53 51 48
43 32 28 30 33 33 33 36 37 34 32 34 44 52 55 57 59 62 66 68 70 65 67 63 59 44 45 50 48 47 47 48
46 36 28 30 35 35 32 34 37 38 37 37 45 54 57 57 62 64 67 71 70 70 64 45 48 47 43 49 46 51 56 56
44 37 27 29 32 34 33 34 36 39 40 44 45 57 57 59 62 67 68 69 69 57 55 52 54 49 78 81 70 54 50 47
42 38 30 26 31 35 32 30 35 38 42 43 48 55 59 61 62 60 64 67 69 67 56 55 59 60 74 78 74 46 45 47
43 36 31 25 26 30 33 30 33 38 39 42 47 54 58 59 62 60 67 66 64 63 56 54 57 55 66 64 67 53 49 47
Wind_Speed
8 11 11 14 16 15 12 6 6 7 6 5 3 4 3 3 4 5 7 6 6 5 5 4 3 3 3 3 4 4 4 5
10 12 14 16 15 13 11 10 10 9 7 4 1 2 3 4 5 7 7 7 8 6 4 4 3 3 2 2 2 5 4 6
11 13 15 16 16 13 11 11 12 9 4 1 2 2 3 4 5 6 7 6 6 5 3 2 1 1 0 2 4 3 3 4
12 13 11 10 10 9 10 10 9 3 3 3 4 4 3 2 3 3 3 3 2 2 3 4 4 3 1 2 3 5 5 3
11 10 10 11 8 6 8 8 6 6 5 5 6 4 3 3 2 1 4 6 8 6 5 4 3 2 4 3 3 4 4 5
14 15 14 11 9 7 8 10 9 8 9 9 7 8 4 2 2 5 6 6 7 7 5 4 1 3 4 4 3 3 3 4
10 8 9 10 9 8 10 13 12 12 12 12 12 10 8 7 7 7 6 8 8 7 5 4 5 5 3 3 4 4 3 2
7 9 7 7 11 11 12 15 14 11 11 10 8 7 7 7 7 7 10 9 9 9 6 6 4 4 3 2 3 3 3 2
6 6 8 10 13 14 14 14 13 10 10 9 8 8 4 4 5 7 7 8 9 10 5 5 5 2 2 2 4 4 3 3
8 9 9 11 12 12 13 14 12 10 8 6 5 4 4 4 7 7 7 9 8 3 6 5 4 4 2 5 4 5 4 4
10 9 9 9 11 10 10 10 10 8 6 4 3 4 5 7 8 10 11 10 7 4 5 5 2 4 4 5 4 5 5 5
11 9 9 10 11 10 10 8 7 6 5 4 5 6 7 7 8 9 10 10 6 4 4 3 4 4 6 5 5 5 6 6
11 11 11 11 10 9 8 6 5 4 3 3 4 6 6 7 8 9 9 8 6 5 6 6 6 7 6 4 6 6 6 6
11 11 11 10 9 7 7 5 4 2 1 2 4 5 6 7 8 8 7 6 7 8 8 8 7 7 5 4 5 6 5 6
12 11 10 9 8 7 5 4 3 2 2 2 4 5 6 6 7 8 7 6 7 6 6 7 7 5 4 2 3 5 5 7
11 12 11 11 8 6 5 4 3 4 3 4 5 5 6 6 8 8 7 7 6 7 7 4 4 3 2 2 3 5 8 10
12 13 13 9 8 7 5 4 5 3 5 6 5 6 6 7 8 9 8 7 6 5 6 3 4 3 6 7 6 6 7 9
13 14 13 12 10 8 6 5 3 4 6 7 7 6 7 7 9 9 9 8 7 6 3 2 2 5 5 7 7 5 7 8
12 11 11 11 9 6 5 4 4 5 7 8 7 7 8 7 8 9 8 8 8 5 4 5 4 4 4 6 7 6 7 8
Wind_Direction
83 96 113 124 128 122 122 127 110 98 132 138 138 106 93 70 81 72 68 66 64 73 71 61 51 66 62 53 28 29 17 344
105 117 128 128 132 128 130 138 136 142 147 179 176 148 112 90 70 56 52 47 50 56 61 49 44 52 75 65 15 357 359 354
124 129 141 147 154 154 151 155 156 153 171 133 62 122 87 79 61 53 46 49 51 60 50 28 316 288 263 59 16 351 3 23
136 148 151 143 150 148 153 154 162 144 102 109 93 96 107 90 52 51 54 110 159 227 271 288 272 262 173 99 46 5 352 31
133 133 130 135 136 126 127 116 99 63 33 60 61 49 49 37 30 317 339 342 333 315 298 291 266 166 119 104 65 35 6 350
144 154 159 144 129 104 88 82 77 75 76 72 68 62 53 18 308 326 328 325 310 291 278 297 174 142 135 112 94 45 40 9
158 136 129 119 103 106 105 97 83 75 71 63 59 47 25 5 349 331 321 316 316 317 276 219 177 158 149 130 132 134 121 102
172 157 141 127 114 114 105 100 93 85 78 68 62 54 36 10 347 327 317 312 309 309 259 190 157 124 150 169 181 175 213 264
180 142 126 119 117 116 113 104 99 94 93 82 67 52 37 7 342 324 311 308 303 303 228 151 131 132 102 160 257 272 244 256
153 129 121 124 125 125 119 115 111 104 98 94 80 58 30 359 344 337 330 321 313 283 161 154 123 121 227 279 302 298 293 291
144 135 132 129 120 116 109 108 110 116 108 100 83 47 13 5 354 346 338 334 322 217 174 153 170 303 292 301 302 290 287 282
148 138 133 131 131 135 126 119 127 111 95 62 35 21 9 352 345 342 339 329 324 247 219 264 317 272 271 269 264 274 268 278
147 145 144 143 145 149 122 117 111 90 70 36 23 11 350 340 337 335 335 330 336 337 304 300 285 292 268 270 271 261 268 271
154 155 155 152 157 138 135 143 116 129 68 4 9 341 327 333 331 328 321 311 303 309 312 301 299 292 293 307 293 292 284 287
166 166 167 171 165 166 165 154 170 196 233 333 307 308 325 321 322 323 319 313 308 306 310 302 295 301 326 294 271 294 303 297
177 179 186 189 184 177 181 179 198 226 257 266 278 301 306 315 328 324 314 305 310 311 298 311 323 322 4 357 329 320 313 312
192 195 199 194 195 197 189 208 226 229 250 262 284 282 300 323 322 314 310 310 298 299 307 315 99 67 23 53 17 344 331 328
198 201 200 204 198 195 202 215 216 243 256 265 268 285 300 305 314 310 298 298 291 298 271 220 113 78 51 50 32 352 335 334
204 201 203 206 188 190 203 216 252 272 273 272 278 286 283 295 306 302 298 296 292 280 211 175 135 85 50 24 7 340 331 332